Location: Newark
(23.1300°N, 73.6109°E)
Time: 17:16:57
(UTC+00:00)

AO-7 - Pass Details

Date: 13 July 2020
Orbit: 1440 x 1458 km, 101.8° (Epoch: 05 August)

Event Time Altitude Azimuth Distance (km) Brightness Sun altitude
Rises 23:39:56 0° 4° (N) 4,563 ? -10.8°
Reaches altitude 10° 23:42:55 10° 357° (N) 3,583 ? -10.2°
Maximum altitude 23:50:30 40° 292° (WNW) 2,029 ? -8.7°
Drops below altitude 10° 23:58:04 10° 227° (SW) 3,571 ? -7.1°
Enters shadow 23:59:31 - 223° (SW) 4,036 ? -6.8°
